Content
SEND FEEDBACK

Daily
Averages
Monthly
Summary
United States of America

STATEN ISLAND, NEW YORK


Home > North America > United States > New York
Elevation: 152 feet     Latitude: 40 35N     Longitude: 074 09W

WEATHER
 
SELECT A DAY
Number of Records: 189,619;   Date Range: 1/1/95 - 7/27/14
 
SHARE

PRINT THIS DATA

[ ← Previous Day ]
WEATHER ALMANAC - MARCH 14, 2013
[ Next Day → ]
[ °C ]   °F
Weather ElementAverageHighLow
Temperature35.8 °F43 °F (3:51 pm)30 °F (8:51 am)
Dewpoint9.7 °F19.9 °F (1:51 am)1.9 °F (8:51 pm)
Humidity35.5 %52 % (1:51 am)22 % (4:51 pm)
Barometer29.91 in29.97 in (9:51 am)29.85 in (4:51 pm)
Wind Speed19.6 mph26.5 mph (8:51 am)
Wind Gust39.1 mph (8:51 am)
Weather ElementAverage
Visibility10 mi
Wind DirectionWNW (293.9 °)

Weather ElementTotal
Precipitation---
Heating Degree Days28.5 (Base 65)
Averaged from 23 records on March 14, 2013
WEATHER CONDITIONS BREAKOUT
WIND DIRECTION BREAKOUT
WEATHER BY HOUR - MARCH 14, 2013
[ °C ]   °F
Local TimeTemperatureDewpointHumidityBarometerVisibilityWind DirectionWind SpeedGust SpeedPrecipitationEventsConditions
1:51 AM36.0 °F19.9 °F52 %29.89 in10.0 miWest (270°)13.8 mphMostly Cloudy
2:51 AM35.1 °F18.0 °F50 %29.90 in10.0 miWest (280°)13.8 mphMostly Cloudy
3:51 AM33.8 °F17.6 °F52 %29.89 in10.0 miWest (280°)18.4 mphMostly Cloudy
4:51 AM32.0 °F10.9 °F42 %29.91 in10.0 miWNW (300°)18.4 mph32.2 mphScattered Clouds
5:51 AM30.9 °F10.0 °F42 %29.92 in10.0 miWNW (290°)12.7 mph17.3 mphScattered Clouds
6:51 AM30.9 °F12.0 °F46 %29.92 in10.0 miWest (270°)17.3 mphMostly Cloudy
7:51 AM32.0 °F14.0 °F48 %29.94 in10.0 miWNW (300°)18.4 mph26.5 mphMostly Cloudy
8:51 AM30.0 °F10.0 °F43 %29.96 in10.0 miWNW (290°)26.5 mph39.1 mph0.00 inMostly Cloudy
9:51 AM30.9 °F8.1 °F38 %29.97 in10.0 miWNW (300°)21.9 mph35.7 mphMostly Cloudy
10:51 AM32.0 °F10.0 °F40 %29.96 in10.0 miNW (310°)21.9 mph32.2 mphMostly Cloudy
11:51 AM35.1 °F12.0 °F39 %29.95 in10.0 miWNW (290°)23.0 mph32.2 mphMostly Cloudy
12:51 PM36.0 °F12.0 °F37 %29.93 in10.0 miWNW (300°)23.0 mph31.1 mphMostly Cloudy
1:51 PM37.9 °F12.0 °F35 %29.90 in10.0 miWNW (300°)24.2 mph35.7 mphScattered Clouds
2:51 PM42.1 °F10.9 °F28 %29.88 in10.0 miWNW (290°)19.6 mph29.9 mphScattered Clouds
3:51 PM43.0 °F8.1 °F24 %29.86 in10.0 miWest (280°)16.1 mph28.8 mphScattered Clouds
4:51 PM43.0 °F6.1 °F22 %29.85 in10.0 miWNW (300°)25.3 mph34.5 mphScattered Clouds
5:51 PM42.1 °F5.0 °F22 %29.86 in10.0 miWNW (300°)18.4 mph34.5 mphScattered Clouds
6:51 PM39.9 °F3.9 °F22 %29.88 in10.0 miWNW (290°)25.3 mph32.2 mphMostly Cloudy
7:51 PM37.9 °F5.0 °F25 %29.90 in10.0 miWNW (300°)18.4 mph24.2 mphScattered Clouds
8:51 PM37.0 °F1.9 °F23 %29.92 in10.0 miWNW (300°)20.7 mph32.2 mphScattered Clouds
9:51 PM36.0 °F3.9 °F26 %29.93 in10.0 miWNW (300°)19.6 mph31.1 mphScattered Clouds
10:51 PM35.1 °F5.0 °F28 %29.95 in10.0 miNW (310°)17.3 mph25.3 mphPartly Cloudy
11:51 PM34.0 °F7.0 °F32 %29.97 in10.0 miNW (310°)17.3 mph23.0 mphClear
Hourly data recorded from KEWR, located miles away from Staten Island, New York







STORIES FROM OUR PARTNERS